NFC9352 BIKF-TXKF

Flight info

Callsign NFC9352
Flight time 5h 46m
Altitude 36000
Route DELES2C DELES DCT DOPOD DCT 62N030W 57N040W 51N050W DCT ALLRY DCT LOMPI/M083F380 DCT SOORY DCT RNGRS MOMOM1
Aircraft B77L/H-SDE1E2E3FGHIJ2J3J4J5M1RWXY/LB1D1

Departure

Time 2026-04-28 13:11
Airport Keflavik International Airport (BIKF)

Arrival

Time 2026-04-28 18:57
Airport L.F. Wade International Airport (TXKF)
Time Latitude Longitude Altitude Speed Heading
2026-04-28 12:58 63.99409 -22.61716 143 ft 0 kts 180°
2026-04-28 13:05 63.99426 -22.61717 145 ft 4 kts 171°
2026-04-28 13:05 63.99451 -22.61734 149 ft 4 kts 146°
2026-04-28 13:05 63.99468 -22.61775 146 ft 4 kts 105°
2026-04-28 13:06 63.99470 -22.61801 145 ft 1 kts 90°
2026-04-28 13:07 63.99470 -22.61785 146 ft 5 kts 90°
2026-04-28 13:08 63.99465 -22.61502 145 ft 19 kts 112°
2026-04-28 13:08 63.99345 -22.61427 148 ft 19 kts 180°
2026-04-28 13:08 63.99214 -22.61429 154 ft 19 kts 171°
2026-04-28 13:08 63.99173 -22.61249 159 ft 13 kts 89°
2026-04-28 13:09 63.99174 -22.61040 163 ft 13 kts 90°
2026-04-28 13:09 63.99173 -22.60835 168 ft 11 kts 91°
2026-04-28 13:09 63.99172 -22.60655 175 ft 11 kts 91°
2026-04-28 13:09 63.99122 -22.60543 178 ft 11 kts 169°
2026-04-28 13:10 63.99004 -22.60543 177 ft 29 kts 180°
2026-04-28 13:10 63.98709 -22.60543 177 ft 64 kts 180°
2026-04-28 13:10 63.97992 -22.60549 178 ft 140 kts 184°
2026-04-28 13:10 63.96908 -22.60582 652 ft 165 kts 183°
2026-04-28 13:11 63.95701 -22.60560 1496 ft 178 kts 182°
2026-04-28 13:11 63.94426 -22.60548 2353 ft 194 kts 184°
2026-04-28 13:11 63.92969 -22.60539 2971 ft 220 kts 184°
2026-04-28 13:11 63.91436 -22.60525 4141 ft 220 kts 186°
2026-04-28 13:12 63.89985 -22.61515 5106 ft 221 kts 214°
2026-04-28 13:12 63.88857 -22.63844 6333 ft 222 kts 225°
2026-04-28 13:12 63.88001 -22.66767 7377 ft 230 kts 236°
2026-04-28 13:12 63.87322 -22.70098 8423 ft 234 kts 238°
2026-04-28 13:13 63.86675 -22.73517 9450 ft 238 kts 238°
2026-04-28 13:13 63.86020 -22.77002 10290 ft 245 kts 238°
2026-04-28 13:13 63.85312 -22.80711 10646 ft 271 kts 239°
2026-04-28 13:13 63.84516 -22.84832 10886 ft 300 kts 239°
2026-04-28 13:14 63.83645 -22.89340 11366 ft 319 kts 239°
2026-04-28 13:14 63.82749 -22.94006 12249 ft 327 kts 240°
2026-04-28 13:14 63.81834 -22.98756 13220 ft 331 kts 239°
2026-04-28 13:14 63.80906 -23.03543 14193 ft 333 kts 239°
2026-04-28 13:15 63.79968 -23.08358 15132 ft 335 kts 239°
2026-04-28 13:15 63.79033 -23.13126 16068 ft 338 kts 238°
2026-04-28 13:15 63.78071 -23.18008 16937 ft 342 kts 238°
2026-04-28 13:15 63.77096 -23.22936 17777 ft 346 kts 238°
2026-04-28 13:16 63.76104 -23.27926 18542 ft 350 kts 238°
2026-04-28 13:16 63.75102 -23.32962 19296 ft 353 kts 238°
2026-04-28 13:16 63.74089 -23.38039 20066 ft 356 kts 238°
2026-04-28 13:16 63.73064 -23.43159 20809 ft 359 kts 238°
2026-04-28 13:17 63.72028 -23.48323 21529 ft 363 kts 238°
2026-04-28 13:17 63.70980 -23.53533 22229 ft 367 kts 238°
2026-04-28 13:17 63.69933 -23.58728 22938 ft 370 kts 238°
2026-04-28 13:17 63.68862 -23.64021 23572 ft 374 kts 238°
2026-04-28 13:18 63.67799 -23.69270 24143 ft 377 kts 238°
2026-04-28 13:18 63.66704 -23.74656 24715 ft 380 kts 238°
2026-04-28 13:18 63.65596 -23.80100 25300 ft 383 kts 238°
2026-04-28 13:18 63.64478 -23.85571 25844 ft 389 kts 238°
2026-04-28 13:19 63.63332 -23.91159 26239 ft 396 kts 238°
2026-04-28 13:19 63.62173 -23.96802 26793 ft 399 kts 238°
2026-04-28 13:19 63.61006 -24.02479 27384 ft 401 kts 238°
2026-04-28 13:19 63.59846 -24.08104 27912 ft 404 kts 238°
2026-04-28 13:20 63.58658 -24.13846 28385 ft 407 kts 238°
2026-04-28 13:20 63.57457 -24.19632 28842 ft 411 kts 238°
2026-04-28 13:20 63.56243 -24.25466 29261 ft 414 kts 238°
2026-04-28 13:20 63.55438 -24.29332 29666 ft 412 kts 238°
2026-04-28 13:21 63.53813 -24.37112 30235 ft 412 kts 238°
2026-04-28 13:21 63.52594 -24.42934 30694 ft 412 kts 238°
2026-04-28 13:21 63.51787 -24.46771 30986 ft 412 kts 238°
2026-04-28 13:21 63.50162 -24.54469 31518 ft 413 kts 238°
2026-04-28 13:22 63.48834 -24.60147 31880 ft 409 kts 232°
2026-04-28 13:22 63.47212 -24.65355 32196 ft 409 kts 229°
2026-04-28 13:22 63.45514 -24.70452 32545 ft 410 kts 229°
2026-04-28 13:22 63.44376 -24.73831 32756 ft 410 kts 229°
2026-04-28 13:23 63.42660 -24.78940 33121 ft 412 kts 229°
2026-04-28 13:23 63.40948 -24.84080 33465 ft 413 kts 229°
2026-04-28 13:23 63.39241 -24.89242 33788 ft 414 kts 230°
2026-04-28 13:23 63.37535 -24.94423 34065 ft 415 kts 230°
2026-04-28 13:24 63.35269 -25.01321 34406 ft 417 kts 230°
2026-04-28 13:24 63.33556 -25.06534 34668 ft 418 kts 230°
2026-04-28 13:24 63.31836 -25.11758 34931 ft 419 kts 230°
2026-04-28 13:24 63.30668 -25.15298 35096 ft 421 kts 230°
2026-04-28 13:25 63.28928 -25.20563 35283 ft 423 kts 230°
2026-04-28 13:25 63.27206 -25.25759 35545 ft 424 kts 230°
2026-04-28 13:25 63.25454 -25.31035 35695 ft 427 kts 230°
2026-04-28 13:26 63.21908 -25.41674 35772 ft 428 kts 230°
2026-04-28 13:26 63.18388 -25.52194 35769 ft 422 kts 230°
2026-04-28 13:27 63.14889 -25.62593 35768 ft 421 kts 229°
2026-04-28 13:27 63.11411 -25.72881 35809 ft 420 kts 229°
2026-04-28 13:28 63.07901 -25.83217 35778 ft 421 kts 229°
2026-04-28 13:28 63.04371 -25.93565 35761 ft 423 kts 229°
2026-04-28 13:29 63.00826 -26.03914 35760 ft 424 kts 229°
2026-04-28 13:29 62.97290 -26.14189 35752 ft 424 kts 229°
2026-04-28 13:30 62.93720 -26.24527 35752 ft 425 kts 229°
2026-04-28 13:30 62.90197 -26.34971 35765 ft 428 kts 232°
2026-04-28 13:31 62.85973 -26.52415 35751 ft 434 kts 238°
2026-04-28 13:31 62.83296 -26.64154 35750 ft 434 kts 238°
2026-04-28 13:32 62.80583 -26.75933 35751 ft 434 kts 238°
2026-04-28 13:32 62.77861 -26.87690 35741 ft 433 kts 238°
2026-04-28 13:33 62.75135 -26.99406 35755 ft 434 kts 238°
2026-04-28 13:33 62.72393 -27.11130 35739 ft 434 kts 238°
2026-04-28 13:34 62.69641 -27.22833 35734 ft 434 kts 238°
2026-04-28 13:34 62.66901 -27.34427 35729 ft 434 kts 238°
2026-04-28 13:35 62.64129 -27.46091 35729 ft 434 kts 238°
2026-04-28 13:35 62.61350 -27.57722 35729 ft 434 kts 237°
2026-04-28 13:36 62.58554 -27.69360 35732 ft 435 kts 238°
2026-04-28 13:36 62.55744 -27.80995 35724 ft 436 kts 237°
2026-04-28 13:37 62.52940 -27.92543 35712 ft 436 kts 237°
2026-04-28 13:37 62.50108 -28.04147 35718 ft 436 kts 237°
2026-04-28 13:38 62.47262 -28.15749 35708 ft 436 kts 237°
2026-04-28 13:38 62.44407 -28.27323 35719 ft 437 kts 237°
2026-04-28 13:39 62.41554 -28.38830 35705 ft 438 kts 237°
2026-04-28 13:39 62.38672 -28.50391 35699 ft 438 kts 237°
2026-04-28 13:40 62.35777 -28.61943 35691 ft 438 kts 237°
2026-04-28 13:40 62.32872 -28.73479 35691 ft 438 kts 237°
2026-04-28 13:41 62.29959 -28.84985 35689 ft 438 kts 237°
2026-04-28 13:41 62.27051 -28.96406 35690 ft 438 kts 237°
2026-04-28 13:42 62.24117 -29.07879 35679 ft 438 kts 237°
2026-04-28 13:42 62.21179 -29.19309 35669 ft 437 kts 237°
2026-04-28 13:43 62.18276 -29.30538 35673 ft 436 kts 237°
2026-04-28 13:43 62.15318 -29.41926 35668 ft 435 kts 237°
2026-04-28 13:44 62.12367 -29.53224 35676 ft 435 kts 237°
2026-04-28 13:44 62.09407 -29.64507 35652 ft 435 kts 237°
2026-04-28 13:45 62.06439 -29.75765 35669 ft 435 kts 237°
2026-04-28 13:45 62.03463 -29.87005 35664 ft 435 kts 237°
2026-04-28 13:46 62.00452 -29.98073 35645 ft 434 kts 233°
2026-04-28 13:46 61.96788 -30.08177 35667 ft 431 kts 226°
2026-04-28 13:47 61.92879 -30.17848 35657 ft 432 kts 227°
2026-04-28 13:47 61.88984 -30.27556 35652 ft 433 kts 227°
2026-04-28 13:48 61.85104 -30.37213 35672 ft 433 kts 227°
2026-04-28 13:48 61.81185 -30.46923 35667 ft 434 kts 227°
2026-04-28 13:49 61.77259 -30.56605 35659 ft 434 kts 227°
2026-04-28 13:49 61.73320 -30.66276 35660 ft 434 kts 227°
2026-04-28 13:50 61.69402 -30.75855 35651 ft 434 kts 227°
2026-04-28 13:50 61.65455 -30.85464 35652 ft 434 kts 226°
2026-04-28 13:51 61.61501 -30.95049 35644 ft 434 kts 226°
2026-04-28 13:51 61.57543 -31.04601 35645 ft 434 kts 226°
2026-04-28 13:52 61.53571 -31.14147 35675 ft 434 kts 226°
2026-04-28 13:52 61.49623 -31.23597 35661 ft 434 kts 226°
2026-04-28 13:53 61.45633 -31.33106 35653 ft 435 kts 226°
2026-04-28 13:53 61.41638 -31.42587 35654 ft 435 kts 226°
2026-04-28 13:54 61.37632 -31.52055 35654 ft 435 kts 226°
2026-04-28 13:54 61.33647 -31.61435 35649 ft 435 kts 226°
2026-04-28 13:55 61.29622 -31.70866 35652 ft 436 kts 226°
2026-04-28 13:55 61.25581 -31.80297 35646 ft 437 kts 226°
2026-04-28 13:56 61.21527 -31.89720 35647 ft 438 kts 226°
2026-04-28 13:56 61.17464 -31.99124 35646 ft 438 kts 226°
2026-04-28 13:57 61.13437 -32.08406 35647 ft 434 kts 226°
2026-04-28 13:57 61.09403 -32.17666 35667 ft 433 kts 226°
2026-04-28 13:58 61.05365 -32.26895 35660 ft 433 kts 226°
2026-04-28 13:58 61.01312 -32.36120 35653 ft 434 kts 226°
2026-04-28 13:59 60.97269 -32.45286 35653 ft 436 kts 226°
2026-04-28 13:59 60.93182 -32.54514 35647 ft 437 kts 226°
2026-04-28 14:00 60.89079 -32.63740 35660 ft 438 kts 226°
2026-04-28 14:00 60.84955 -32.72975 35646 ft 439 kts 226°
2026-04-28 14:01 60.80820 -32.82198 35644 ft 440 kts 226°
2026-04-28 14:01 60.76704 -32.91341 35641 ft 440 kts 226°
2026-04-28 14:02 60.72551 -33.00526 35641 ft 440 kts 226°
2026-04-28 14:02 60.68388 -33.09700 35639 ft 440 kts 226°
2026-04-28 14:03 60.64224 -33.18835 35643 ft 440 kts 226°
2026-04-28 14:03 60.60085 -33.27880 35633 ft 439 kts 226°
2026-04-28 14:04 60.55925 -33.36933 35631 ft 438 kts 226°
2026-04-28 14:04 60.51760 -33.45961 35629 ft 437 kts 225°
2026-04-28 14:05 60.47600 -33.54942 35631 ft 437 kts 225°
2026-04-28 14:05 60.43428 -33.63910 35655 ft 437 kts 226°
2026-04-28 14:06 60.39282 -33.72789 35653 ft 438 kts 226°
2026-04-28 14:06 60.35088 -33.81736 35653 ft 438 kts 225°
2026-04-28 14:07 60.30892 -33.90651 35654 ft 438 kts 225°
2026-04-28 14:07 60.26687 -33.99550 35655 ft 438 kts 225°
2026-04-28 14:08 60.22474 -34.08429 35662 ft 438 kts 225°
2026-04-28 14:08 60.18249 -34.17297 35654 ft 439 kts 225°
2026-04-28 14:09 60.14052 -34.26075 35653 ft 438 kts 225°
2026-04-28 14:09 60.09827 -34.34874 35669 ft 438 kts 225°
2026-04-28 14:10 60.05597 -34.43651 35676 ft 438 kts 225°
2026-04-28 14:10 60.01358 -34.52409 35678 ft 438 kts 225°
2026-04-28 14:11 59.97138 -34.61094 35669 ft 439 kts 225°
2026-04-28 14:11 59.92874 -34.69838 35671 ft 440 kts 225°
2026-04-28 14:12 59.88602 -34.78563 35675 ft 440 kts 225°
2026-04-28 14:12 59.84319 -34.87277 35675 ft 440 kts 225°
2026-04-28 14:13 59.80034 -34.95959 35683 ft 439 kts 225°
2026-04-28 14:13 59.75749 -35.04607 35681 ft 439 kts 225°
2026-04-28 14:14 59.71488 -35.13176 35706 ft 439 kts 225°
2026-04-28 14:14 59.67188 -35.21789 35707 ft 440 kts 225°
2026-04-28 14:15 59.62874 -35.30394 35708 ft 440 kts 225°
2026-04-28 14:15 59.58557 -35.38975 35708 ft 440 kts 225°
2026-04-28 14:16 59.54259 -35.47482 35707 ft 440 kts 225°
2026-04-28 14:16 59.49926 -35.56028 35712 ft 441 kts 225°
2026-04-28 14:17 59.45585 -35.64558 35711 ft 441 kts 225°
2026-04-28 14:17 59.41244 -35.73054 35717 ft 441 kts 225°
2026-04-28 14:18 59.36900 -35.81523 35720 ft 439 kts 225°
2026-04-28 14:18 59.32594 -35.89885 35744 ft 439 kts 225°
2026-04-28 14:19 59.28253 -35.98284 35739 ft 440 kts 225°
2026-04-28 14:19 59.23886 -36.06702 35745 ft 441 kts 225°
2026-04-28 14:20 59.19514 -36.15095 35742 ft 441 kts 225°
2026-04-28 14:20 59.15137 -36.23470 35749 ft 441 kts 225°
2026-04-28 14:21 59.10779 -36.31775 35749 ft 442 kts 225°
2026-04-28 14:21 59.06382 -36.40123 35753 ft 442 kts 225°
2026-04-28 14:22 59.01974 -36.48459 35781 ft 443 kts 225°
2026-04-28 14:22 58.97556 -36.56784 35784 ft 442 kts 225°
2026-04-28 14:23 58.93140 -36.65074 35782 ft 442 kts 225°
2026-04-28 14:23 58.88723 -36.73332 35798 ft 441 kts 225°
2026-04-28 14:24 58.84331 -36.81515 35794 ft 442 kts 225°
2026-04-28 14:24 58.79889 -36.89762 35798 ft 444 kts 225°
2026-04-28 14:25 58.75434 -36.98001 35801 ft 444 kts 225°
2026-04-28 14:25 58.70976 -37.06215 35811 ft 443 kts 225°
2026-04-28 14:26 58.66543 -37.14351 35814 ft 443 kts 225°
2026-04-28 14:26 58.62074 -37.22525 35843 ft 443 kts 225°
2026-04-28 14:27 58.57602 -37.30672 35839 ft 444 kts 225°
2026-04-28 14:27 58.53121 -37.38805 35849 ft 443 kts 225°
2026-04-28 14:28 58.48638 -37.46914 35846 ft 443 kts 225°
2026-04-28 14:28 58.44180 -37.54945 35845 ft 444 kts 224°
2026-04-28 14:29 58.39682 -37.63018 35849 ft 445 kts 224°
2026-04-28 14:29 58.35166 -37.71098 35862 ft 446 kts 224°
2026-04-28 14:30 58.30640 -37.79165 35858 ft 445 kts 224°
2026-04-28 14:30 58.26115 -37.87198 35890 ft 445 kts 224°
2026-04-28 14:31 58.21619 -37.95152 35884 ft 445 kts 225°
2026-04-28 14:31 58.17083 -38.03145 35892 ft 446 kts 224°
2026-04-28 14:32 58.12530 -38.11143 35893 ft 447 kts 225°
2026-04-28 14:32 58.07962 -38.19138 35903 ft 448 kts 224°
2026-04-28 14:33 58.03413 -38.27069 35904 ft 448 kts 224°
2026-04-28 14:33 57.98821 -38.35045 35911 ft 449 kts 225°
2026-04-28 14:34 57.91911 -38.46994 35934 ft 450 kts 225°
2026-04-28 14:35 57.87297 -38.54936 35933 ft 450 kts 225°
2026-04-28 14:35 57.82676 -38.62860 35944 ft 449 kts 225°
2026-04-28 14:36 57.78093 -38.70690 35944 ft 449 kts 225°
2026-04-28 14:36 57.73464 -38.78575 35956 ft 451 kts 225°
2026-04-28 14:37 57.68809 -38.86476 35960 ft 453 kts 225°
2026-04-28 14:37 57.64134 -38.94377 35971 ft 453 kts 224°
2026-04-28 14:38 57.59449 -39.02266 35976 ft 453 kts 224°
2026-04-28 14:38 57.54766 -39.10124 35975 ft 452 kts 224°
2026-04-28 14:39 57.50118 -39.17897 35993 ft 453 kts 224°
2026-04-28 14:39 57.45423 -39.25722 35996 ft 453 kts 224°
2026-04-28 14:40 57.40724 -39.33523 35995 ft 454 kts 224°
2026-04-28 14:40 57.36014 -39.41316 36001 ft 453 kts 224°
2026-04-28 14:41 57.31337 -39.49025 36015 ft 453 kts 224°
2026-04-28 14:41 57.26630 -39.56756 36012 ft 453 kts 224°
2026-04-28 14:42 57.21914 -39.64477 36020 ft 453 kts 224°
2026-04-28 14:42 57.17195 -39.72174 36033 ft 453 kts 224°
2026-04-28 14:43 57.12470 -39.79854 36034 ft 453 kts 224°
2026-04-28 14:43 57.07767 -39.87473 36046 ft 454 kts 224°
2026-04-28 14:44 57.03020 -39.95138 36055 ft 455 kts 224°
2026-04-28 14:44 56.98424 -40.03088 36047 ft 453 kts 231°
2026-04-28 14:45 56.94281 -40.11780 36058 ft 453 kts 230°
2026-04-28 14:45 56.90112 -40.20436 36054 ft 453 kts 231°
2026-04-28 14:46 56.85950 -40.29008 36072 ft 454 kts 230°
2026-04-28 14:46 56.81749 -40.37618 36071 ft 454 kts 230°
2026-04-28 14:47 56.77536 -40.46221 36079 ft 455 kts 230°
2026-04-28 14:47 56.73316 -40.54807 36080 ft 454 kts 230°
2026-04-28 14:48 56.69095 -40.63363 36086 ft 454 kts 230°
2026-04-28 14:48 56.64891 -40.71858 36102 ft 455 kts 230°
2026-04-28 14:49 56.60644 -40.80406 36103 ft 456 kts 230°
2026-04-28 14:49 56.56391 -40.88936 36110 ft 456 kts 230°
2026-04-28 14:50 56.52130 -40.97453 36096 ft 457 kts 230°
2026-04-28 14:50 56.47854 -41.05966 36127 ft 457 kts 230°
2026-04-28 14:51 56.43593 -41.14421 36121 ft 458 kts 230°
2026-04-28 14:51 56.39292 -41.22923 36129 ft 458 kts 230°
2026-04-28 14:52 56.34984 -41.31408 36127 ft 459 kts 230°
2026-04-28 14:52 56.30669 -41.39877 36125 ft 459 kts 230°
2026-04-28 14:53 56.26345 -41.48333 36127 ft 460 kts 230°
2026-04-28 14:53 56.22034 -41.56735 36144 ft 460 kts 230°
2026-04-28 14:54 56.17680 -41.65189 36143 ft 461 kts 230°
2026-04-28 14:54 56.13315 -41.73633 36134 ft 462 kts 230°
2026-04-28 14:55 56.08937 -41.82072 36153 ft 462 kts 230°
2026-04-28 14:55 56.04550 -41.90499 36153 ft 463 kts 230°
2026-04-28 14:56 56.00154 -41.98914 36163 ft 463 kts 229°
2026-04-28 14:56 55.95777 -42.07261 36166 ft 463 kts 229°
2026-04-28 14:57 55.91370 -42.15636 36161 ft 463 kts 229°
2026-04-28 14:57 55.86955 -42.23996 36172 ft 463 kts 229°
2026-04-28 14:58 55.82534 -42.32337 36183 ft 463 kts 229°
2026-04-28 14:58 55.78105 -42.40667 36182 ft 464 kts 229°
2026-04-28 14:59 55.73698 -42.48922 36166 ft 464 kts 229°
2026-04-28 14:59 55.69256 -42.57215 36198 ft 464 kts 229°
2026-04-28 15:00 55.64804 -42.65498 36195 ft 464 kts 229°
2026-04-28 15:00 55.60344 -42.73768 36208 ft 465 kts 229°
2026-04-28 15:01 55.55875 -42.82024 36206 ft 465 kts 229°
2026-04-28 15:01 55.51428 -42.90209 36201 ft 465 kts 229°
2026-04-28 15:02 55.46942 -42.98439 36210 ft 465 kts 229°
2026-04-28 15:02 55.42448 -43.06655 36215 ft 466 kts 229°
2026-04-28 15:03 55.37942 -43.14863 36219 ft 466 kts 229°
2026-04-28 15:03 55.33462 -43.22996 36219 ft 466 kts 229°
2026-04-28 15:04 55.28942 -43.31173 36222 ft 467 kts 229°
2026-04-28 15:04 55.24420 -43.39324 36226 ft 466 kts 229°
2026-04-28 15:05 55.19891 -43.47461 36235 ft 466 kts 229°
2026-04-28 15:05 55.15386 -43.55526 36233 ft 466 kts 229°
2026-04-28 15:06 55.10853 -43.63613 36231 ft 466 kts 229°
2026-04-28 15:06 55.06310 -43.71691 36242 ft 466 kts 229°
2026-04-28 15:07 55.01763 -43.79747 36245 ft 466 kts 229°
2026-04-28 15:07 54.97207 -43.87793 36249 ft 467 kts 229°
2026-04-28 15:08 54.92669 -43.95779 36249 ft 467 kts 229°
2026-04-28 15:08 54.88096 -44.03798 36254 ft 468 kts 229°
2026-04-28 15:09 54.83510 -44.11814 36253 ft 468 kts 229°
2026-04-28 15:09 54.78918 -44.19813 36259 ft 468 kts 229°
2026-04-28 15:10 54.74343 -44.27753 36247 ft 469 kts 229°
2026-04-28 15:10 54.69736 -44.35723 36262 ft 469 kts 229°
2026-04-28 15:11 54.65120 -44.43682 36271 ft 469 kts 229°
2026-04-28 15:11 54.60497 -44.51625 36273 ft 469 kts 229°
2026-04-28 15:12 54.55868 -44.59554 36274 ft 469 kts 228°
2026-04-28 15:12 54.51233 -44.67462 36267 ft 469 kts 228°
2026-04-28 15:13 54.46627 -44.75297 36282 ft 469 kts 228°
2026-04-28 15:13 54.41980 -44.83175 36288 ft 469 kts 228°
2026-04-28 15:14 54.37326 -44.91038 36291 ft 470 kts 228°
2026-04-28 15:14 54.32667 -44.98882 36279 ft 469 kts 228°
2026-04-28 15:15 54.28002 -45.06710 36303 ft 470 kts 228°
2026-04-28 15:15 54.23329 -45.14527 36298 ft 470 kts 228°
2026-04-28 15:15 54.21013 -45.18392 36407 ft 473 kts 228°
2026-04-28 15:16 54.18657 -45.22317 36736 ft 473 kts 228°
2026-04-28 15:16 54.16307 -45.26223 37132 ft 471 kts 228°
2026-04-28 15:16 54.13961 -45.30116 37482 ft 470 kts 228°
2026-04-28 15:16 54.11613 -45.34007 37836 ft 470 kts 228°
2026-04-28 15:17 54.09269 -45.37884 38139 ft 470 kts 228°
2026-04-28 15:17 54.06919 -45.41768 38248 ft 473 kts 228°
2026-04-28 15:17 54.04584 -45.45621 38299 ft 474 kts 227°
2026-04-28 15:18 53.99858 -45.53393 38309 ft 471 kts 227°
2026-04-28 15:18 53.95159 -45.61093 38290 ft 468 kts 227°
2026-04-28 15:19 53.90485 -45.68729 38310 ft 466 kts 227°
2026-04-28 15:19 53.85819 -45.76331 38319 ft 466 kts 227°
2026-04-28 15:20 53.81138 -45.83932 38318 ft 467 kts 227°
2026-04-28 15:20 53.76476 -45.91478 38328 ft 468 kts 227°
2026-04-28 15:21 53.71756 -45.99091 38326 ft 470 kts 227°
2026-04-28 15:21 53.67017 -46.06709 38327 ft 471 kts 227°
2026-04-28 15:22 53.63063 -46.13046 38331 ft 472 kts 227°
2026-04-28 15:22 53.57522 -46.21899 38333 ft 473 kts 227°
2026-04-28 15:23 53.52736 -46.29517 38336 ft 474 kts 227°
2026-04-28 15:23 53.47942 -46.37124 38337 ft 474 kts 227°
2026-04-28 15:24 53.43956 -46.43429 38332 ft 474 kts 227°
2026-04-28 15:24 53.39153 -46.51004 38340 ft 474 kts 227°
2026-04-28 15:25 53.33571 -46.59779 38339 ft 473 kts 227°
2026-04-28 15:25 53.29546 -46.66085 38349 ft 473 kts 227°
2026-04-28 15:26 53.24773 -46.73540 38347 ft 473 kts 227°
2026-04-28 15:26 53.19968 -46.81022 38349 ft 472 kts 227°
2026-04-28 15:27 53.15160 -46.88484 38330 ft 472 kts 227°
2026-04-28 15:27 53.10354 -46.95920 38343 ft 472 kts 227°
2026-04-28 15:28 53.05546 -47.03334 38357 ft 471 kts 227°
2026-04-28 15:28 53.00763 -47.10688 38356 ft 472 kts 227°
2026-04-28 15:29 52.95941 -47.18077 38333 ft 472 kts 227°
2026-04-28 15:29 52.91117 -47.25446 38354 ft 472 kts 226°
2026-04-28 15:30 52.86281 -47.32809 38355 ft 472 kts 226°
2026-04-28 15:30 52.81475 -47.40104 38363 ft 472 kts 226°
2026-04-28 15:31 52.76626 -47.47442 38337 ft 473 kts 226°
2026-04-28 15:31 52.71777 -47.54755 38358 ft 472 kts 226°
2026-04-28 15:32 52.66924 -47.62053 38371 ft 472 kts 226°
2026-04-28 15:32 52.62061 -47.69342 38384 ft 473 kts 226°
2026-04-28 15:33 52.57225 -47.76568 38375 ft 473 kts 226°
2026-04-28 15:33 52.52357 -47.83819 38377 ft 472 kts 226°
2026-04-28 15:34 52.47481 -47.91059 38377 ft 473 kts 226°
2026-04-28 15:34 52.42601 -47.98283 38382 ft 473 kts 226°
2026-04-28 15:35 52.37714 -48.05494 38386 ft 473 kts 226°
2026-04-28 15:35 52.30415 -48.16224 38382 ft 473 kts 226°
2026-04-28 15:36 52.25520 -48.23392 38386 ft 473 kts 226°
2026-04-28 15:36 52.20619 -48.30547 38388 ft 473 kts 226°
2026-04-28 15:37 52.15711 -48.37689 38378 ft 473 kts 225°
2026-04-28 15:37 52.10795 -48.44820 38388 ft 473 kts 225°
2026-04-28 15:38 52.05909 -48.51887 38396 ft 474 kts 225°
2026-04-28 15:38 52.00983 -48.58991 38396 ft 474 kts 225°
2026-04-28 15:39 51.96050 -48.66082 38383 ft 474 kts 225°
2026-04-28 15:39 51.91110 -48.73161 38396 ft 474 kts 225°
2026-04-28 15:40 51.86200 -48.80177 38400 ft 474 kts 225°
2026-04-28 15:40 51.81249 -48.87229 38402 ft 474 kts 225°
2026-04-28 15:41 51.76291 -48.94269 38394 ft 474 kts 225°
2026-04-28 15:41 51.71330 -49.01292 38408 ft 475 kts 225°
2026-04-28 15:42 51.66362 -49.08305 38409 ft 475 kts 225°
2026-04-28 15:42 51.61385 -49.15310 38410 ft 475 kts 225°
2026-04-28 15:43 51.56440 -49.22246 38410 ft 475 kts 225°
2026-04-28 15:43 51.51455 -49.29219 38412 ft 475 kts 225°
2026-04-28 15:44 51.46467 -49.36175 38411 ft 475 kts 225°
2026-04-28 15:44 51.41469 -49.43124 38414 ft 475 kts 224°
2026-04-28 15:45 51.36505 -49.50005 38410 ft 475 kts 224°
2026-04-28 15:45 51.31503 -49.56919 38416 ft 475 kts 224°
2026-04-28 15:46 51.26494 -49.63821 38415 ft 475 kts 224°
2026-04-28 15:46 51.21486 -49.70703 38416 ft 475 kts 224°
2026-04-28 15:47 51.16505 -49.77527 38410 ft 475 kts 224°
2026-04-28 15:47 51.11490 -49.84378 38426 ft 475 kts 224°
2026-04-28 15:48 51.06471 -49.91216 38425 ft 475 kts 224°
2026-04-28 15:48 51.01665 -49.98343 38418 ft 469 kts 234°
2026-04-28 15:49 50.98226 -50.07011 38419 ft 461 kts 249°
2026-04-28 15:49 50.95958 -50.16406 38418 ft 460 kts 252°
2026-04-28 15:50 50.93728 -50.25915 38428 ft 461 kts 252°
2026-04-28 15:50 50.91455 -50.35421 38427 ft 462 kts 252°
2026-04-28 15:51 50.89147 -50.44930 38396 ft 463 kts 252°
2026-04-28 15:51 50.86824 -50.54430 38426 ft 463 kts 252°
2026-04-28 15:52 50.84506 -50.63873 38425 ft 464 kts 251°
2026-04-28 15:52 50.82164 -50.73374 38420 ft 464 kts 251°
2026-04-28 15:53 50.79812 -50.82878 38431 ft 464 kts 251°
2026-04-28 15:53 50.77455 -50.92364 38408 ft 464 kts 251°
2026-04-28 15:54 50.75088 -51.01848 38420 ft 464 kts 251°
2026-04-28 15:54 50.72732 -51.11247 38425 ft 464 kts 251°
2026-04-28 15:55 50.70353 -51.20700 38427 ft 464 kts 251°
2026-04-28 15:55 50.67963 -51.30156 38426 ft 464 kts 251°
2026-04-28 15:56 50.65566 -51.39601 38418 ft 464 kts 251°
2026-04-28 15:56 50.63159 -51.49042 38426 ft 464 kts 251°
2026-04-28 15:57 50.60747 -51.58467 38428 ft 464 kts 251°
2026-04-28 15:57 50.58340 -51.67835 38426 ft 465 kts 251°
2026-04-28 15:58 50.55910 -51.77253 38423 ft 465 kts 251°
2026-04-28 15:58 50.53471 -51.86671 38413 ft 465 kts 251°
2026-04-28 15:59 50.50827 -51.95927 38416 ft 467 kts 240°
2026-04-28 15:59 50.48804 -51.99947 38431 ft 472 kts 229°
2026-04-28 15:59 50.46369 -52.03327 38439 ft 476 kts 218°
2026-04-28 16:00 50.40615 -52.08558 38426 ft 480 kts 212°
2026-04-28 16:00 50.34744 -52.13560 38424 ft 481 kts 212°
2026-04-28 16:01 50.28878 -52.18622 38421 ft 482 kts 212°
2026-04-28 16:01 50.23011 -52.23745 38440 ft 483 kts 212°
2026-04-28 16:02 50.17181 -52.28848 38432 ft 484 kts 212°
2026-04-28 16:02 50.11303 -52.33979 38435 ft 484 kts 212°
2026-04-28 16:03 50.05419 -52.39098 38436 ft 484 kts 212°
2026-04-28 16:03 49.99534 -52.44199 38425 ft 484 kts 212°
2026-04-28 16:04 49.93686 -52.49255 38418 ft 484 kts 212°
2026-04-28 16:04 49.87808 -52.54323 38433 ft 483 kts 212°
2026-04-28 16:05 49.81929 -52.59377 38437 ft 483 kts 212°
2026-04-28 16:05 49.76055 -52.64413 38440 ft 483 kts 212°
2026-04-28 16:06 49.70211 -52.69410 38437 ft 483 kts 212°
2026-04-28 16:06 49.64326 -52.74427 38436 ft 483 kts 212°
2026-04-28 16:07 49.58431 -52.79440 38441 ft 484 kts 212°
2026-04-28 16:08 49.49583 -52.86937 38431 ft 484 kts 212°
2026-04-28 16:08 49.43724 -52.91883 38439 ft 484 kts 212°
2026-04-28 16:09 49.34859 -52.99342 38441 ft 485 kts 212°
2026-04-28 16:10 49.25987 -53.06777 38444 ft 485 kts 211°
2026-04-28 16:10 49.17098 -53.14194 38441 ft 485 kts 211°
2026-04-28 16:11 49.05275 -53.24014 38441 ft 485 kts 211°
2026-04-28 16:12 48.96371 -53.31372 38442 ft 485 kts 211°
2026-04-28 16:13 48.87516 -53.38660 38427 ft 483 kts 211°
2026-04-28 16:14 48.75710 -53.48332 38429 ft 481 kts 211°
2026-04-28 16:15 48.63955 -53.57911 38433 ft 479 kts 211°
2026-04-28 16:15 48.58123 -53.62645 38429 ft 479 kts 211°
2026-04-28 16:16 48.49316 -53.69770 38428 ft 479 kts 211°
2026-04-28 16:17 48.40492 -53.76879 38422 ft 480 kts 211°
2026-04-28 16:17 48.34605 -53.81607 38428 ft 480 kts 211°
2026-04-28 16:18 48.28717 -53.86324 38433 ft 480 kts 211°
2026-04-28 16:18 48.22852 -53.91009 38434 ft 480 kts 211°
2026-04-28 16:19 48.16954 -53.95707 38441 ft 480 kts 211°
2026-04-28 16:19 48.11059 -54.00392 38436 ft 480 kts 211°
2026-04-28 16:20 48.05165 -54.05063 38429 ft 479 kts 211°
2026-04-28 16:20 47.99322 -54.09683 38440 ft 478 kts 211°
2026-04-28 16:21 47.93454 -54.14309 38450 ft 477 kts 211°
2026-04-28 16:21 47.87591 -54.18920 38446 ft 476 kts 211°
2026-04-28 16:22 47.81736 -54.23513 38446 ft 475 kts 211°
2026-04-28 16:22 47.75894 -54.28085 38451 ft 474 kts 211°
2026-04-28 16:23 47.70096 -54.32610 38453 ft 474 kts 211°
2026-04-28 16:23 47.64258 -54.37155 38458 ft 473 kts 211°
2026-04-28 16:24 47.58424 -54.41686 38465 ft 474 kts 211°
2026-04-28 16:24 47.52577 -54.46214 38457 ft 474 kts 211°
2026-04-28 16:25 47.46726 -54.50733 38442 ft 475 kts 211°
2026-04-28 16:25 47.40911 -54.55214 38463 ft 475 kts 211°
2026-04-28 16:26 47.35052 -54.59718 38466 ft 474 kts 211°
2026-04-28 16:26 47.29205 -54.64201 38465 ft 473 kts 211°
2026-04-28 16:27 47.23369 -54.68664 38470 ft 472 kts 211°
2026-04-28 16:28 47.14679 -54.75289 38471 ft 470 kts 211°
2026-04-28 16:28 47.08872 -54.79704 38471 ft 470 kts 211°
2026-04-28 16:29 47.00172 -54.86296 38465 ft 469 kts 211°
2026-04-28 16:30 46.91473 -54.92864 38471 ft 469 kts 211°
2026-04-28 16:30 46.85711 -54.97202 38467 ft 469 kts 211°
2026-04-28 16:31 46.79909 -55.01558 38486 ft 469 kts 211°
2026-04-28 16:31 46.74107 -55.05904 38485 ft 469 kts 211°
2026-04-28 16:32 46.68299 -55.10243 38453 ft 469 kts 211°
2026-04-28 16:32 46.59623 -55.16706 38473 ft 469 kts 211°
2026-04-28 16:33 46.54791 -55.20295 38481 ft 469 kts 211°
2026-04-28 16:33 46.48002 -55.25326 38469 ft 469 kts 211°
2026-04-28 16:34 46.42197 -55.29616 38478 ft 468 kts 211°
2026-04-28 16:34 46.36397 -55.33892 38479 ft 468 kts 211°
2026-04-28 16:35 46.30639 -55.38128 38481 ft 467 kts 211°
2026-04-28 16:35 46.24849 -55.42376 38475 ft 466 kts 211°
2026-04-28 16:36 46.19071 -55.46605 38478 ft 465 kts 211°
2026-04-28 16:36 46.13300 -55.50820 38481 ft 464 kts 211°
2026-04-28 16:37 46.07576 -55.54991 38474 ft 463 kts 211°
2026-04-28 16:38 45.98958 -55.61251 38480 ft 462 kts 211°
2026-04-28 16:38 45.93217 -55.65410 38478 ft 462 kts 211°
2026-04-28 16:39 45.87481 -55.69555 38481 ft 461 kts 211°
2026-04-28 16:39 45.81748 -55.73687 38478 ft 461 kts 211°
2026-04-28 16:40 45.76059 -55.77780 38478 ft 461 kts 211°
2026-04-28 16:40 45.70331 -55.81891 38480 ft 460 kts 211°
2026-04-28 16:41 45.64600 -55.85995 38481 ft 460 kts 211°
2026-04-28 16:41 45.58873 -55.90087 38481 ft 460 kts 211°
2026-04-28 16:42 45.53142 -55.94172 38479 ft 461 kts 211°
2026-04-28 16:42 45.47449 -55.98220 38469 ft 460 kts 211°
2026-04-28 16:43 45.41712 -56.02290 38476 ft 461 kts 211°
2026-04-28 16:43 45.35975 -56.06351 38475 ft 461 kts 211°
2026-04-28 16:44 45.30232 -56.10408 38466 ft 461 kts 211°
2026-04-28 16:44 45.24529 -56.14426 38476 ft 461 kts 211°
2026-04-28 16:45 45.18785 -56.18464 38477 ft 461 kts 211°
2026-04-28 16:45 45.13040 -56.22495 38454 ft 460 kts 211°
2026-04-28 16:46 45.07315 -56.26500 38466 ft 458 kts 211°
2026-04-28 16:46 45.01614 -56.30481 38466 ft 456 kts 211°
2026-04-28 16:47 44.95974 -56.34411 38450 ft 454 kts 211°
2026-04-28 16:47 44.90330 -56.38335 38463 ft 451 kts 210°
2026-04-28 16:48 44.84703 -56.42239 38461 ft 450 kts 210°
2026-04-28 16:48 44.79084 -56.46129 38467 ft 449 kts 210°
2026-04-28 16:49 44.73474 -56.50004 38465 ft 449 kts 210°
2026-04-28 16:49 44.67874 -56.53864 38460 ft 449 kts 210°
2026-04-28 16:50 44.62295 -56.57702 38457 ft 449 kts 210°
2026-04-28 16:50 44.56676 -56.61558 38449 ft 449 kts 210°
2026-04-28 16:51 44.51063 -56.65401 38458 ft 449 kts 210°
2026-04-28 16:51 44.45440 -56.69243 38453 ft 450 kts 210°
2026-04-28 16:52 44.39852 -56.73053 38440 ft 449 kts 210°
2026-04-28 16:52 44.34242 -56.76870 38444 ft 448 kts 210°
2026-04-28 16:53 44.28651 -56.80665 38448 ft 446 kts 210°
2026-04-28 16:53 44.23072 -56.84446 38446 ft 445 kts 210°
2026-04-28 16:54 44.17509 -56.88207 38435 ft 444 kts 209°
2026-04-28 16:54 44.11990 -56.91931 38439 ft 443 kts 209°
2026-04-28 16:55 44.06447 -56.95665 38436 ft 443 kts 209°
2026-04-28 16:55 44.00901 -56.99393 38443 ft 443 kts 209°
2026-04-28 16:56 43.95341 -57.03067 38438 ft 443 kts 208°
2026-04-28 16:56 43.89793 -57.06663 38441 ft 443 kts 208°
2026-04-28 16:57 43.84209 -57.10277 38440 ft 443 kts 208°
2026-04-28 16:57 43.78626 -57.13893 38437 ft 443 kts 208°
2026-04-28 16:58 43.73038 -57.17509 38435 ft 443 kts 208°
2026-04-28 16:58 43.67462 -57.21111 38412 ft 442 kts 208°
2026-04-28 16:59 43.61925 -57.24680 38426 ft 442 kts 208°
2026-04-28 16:59 43.56359 -57.28261 38429 ft 441 kts 208°
2026-04-28 17:00 43.50796 -57.31833 38404 ft 441 kts 208°
2026-04-28 17:00 43.45229 -57.35400 38424 ft 441 kts 208°
2026-04-28 17:01 43.39695 -57.38938 38421 ft 442 kts 208°
2026-04-28 17:01 43.34101 -57.42507 38416 ft 444 kts 208°
2026-04-28 17:02 43.28497 -57.46076 38413 ft 445 kts 208°
2026-04-28 17:02 43.22873 -57.49650 38415 ft 446 kts 208°
2026-04-28 17:03 43.14442 -57.54994 38387 ft 448 kts 208°
2026-04-28 17:03 43.08780 -57.58573 38401 ft 449 kts 208°
2026-04-28 17:04 43.00268 -57.63940 38398 ft 450 kts 208°
2026-04-28 17:05 42.91769 -57.69284 38406 ft 451 kts 209°
2026-04-28 17:06 42.83212 -57.74647 38384 ft 452 kts 209°
2026-04-28 17:06 42.74644 -57.80000 38380 ft 451 kts 209°
2026-04-28 17:07 42.68940 -57.83555 38381 ft 451 kts 209°
2026-04-28 17:07 42.63273 -57.87079 38384 ft 450 kts 209°
2026-04-28 17:08 42.57586 -57.90609 38375 ft 449 kts 209°
2026-04-28 17:08 42.51904 -57.94129 38368 ft 448 kts 209°
2026-04-28 17:09 42.46233 -57.97636 38362 ft 447 kts 209°
2026-04-28 17:09 42.40577 -58.01125 38353 ft 447 kts 210°
2026-04-28 17:10 42.34968 -58.04579 38350 ft 446 kts 210°
2026-04-28 17:10 42.29315 -58.08054 38352 ft 446 kts 210°
2026-04-28 17:11 42.23677 -58.11512 38339 ft 445 kts 209°
2026-04-28 17:11 42.18053 -58.14954 38341 ft 444 kts 209°
2026-04-28 17:12 42.12475 -58.18362 38338 ft 443 kts 209°
2026-04-28 17:12 42.06868 -58.21782 38330 ft 442 kts 209°
2026-04-28 17:13 42.01261 -58.25194 38328 ft 442 kts 209°
2026-04-28 17:13 41.95658 -58.28598 38328 ft 442 kts 209°
2026-04-28 17:14 41.90097 -58.31968 38315 ft 440 kts 210°
2026-04-28 17:14 41.84529 -58.35336 38303 ft 438 kts 210°
2026-04-28 17:15 41.78989 -58.38682 38300 ft 436 kts 210°
2026-04-28 17:15 41.73477 -58.42004 38291 ft 434 kts 210°
2026-04-28 17:16 41.67980 -58.45312 38290 ft 433 kts 210°
2026-04-28 17:16 41.62528 -58.48587 38283 ft 433 kts 210°
2026-04-28 17:17 41.57032 -58.51883 38273 ft 434 kts 209°
2026-04-28 17:17 41.51513 -58.55185 38272 ft 436 kts 209°
2026-04-28 17:18 41.45966 -58.58498 38270 ft 437 kts 209°
2026-04-28 17:18 41.40408 -58.61809 38260 ft 436 kts 209°
2026-04-28 17:19 41.34922 -58.65071 38251 ft 434 kts 209°
2026-04-28 17:19 41.29431 -58.68330 38247 ft 431 kts 209°
2026-04-28 17:20 41.24900 -58.71017 38248 ft 427 kts 208°
2026-04-28 17:20 41.18600 -58.74743 38234 ft 421 kts 208°
2026-04-28 17:21 41.13269 -58.77891 38215 ft 418 kts 209°
2026-04-28 17:22 41.05358 -58.82555 38220 ft 416 kts 208°
2026-04-28 17:22 41.00071 -58.85665 38215 ft 416 kts 208°
2026-04-28 17:23 40.92114 -58.90335 38212 ft 417 kts 208°
2026-04-28 17:23 40.86841 -58.93421 38199 ft 417 kts 208°
2026-04-28 17:24 40.82394 -58.96019 38198 ft 417 kts 208°
2026-04-28 17:24 40.76234 -58.99613 38203 ft 415 kts 208°
2026-04-28 17:25 40.68331 -59.04212 38176 ft 412 kts 208°
2026-04-28 17:26 40.63980 -59.06739 38177 ft 411 kts 208°
2026-04-28 17:26 40.57926 -59.10249 38171 ft 408 kts 208°
2026-04-28 17:27 40.52745 -59.13248 38169 ft 406 kts 208°
2026-04-28 17:27 40.47584 -59.16231 38165 ft 405 kts 208°
2026-04-28 17:28 40.43301 -59.18702 38166 ft 404 kts 208°
2026-04-28 17:28 40.35571 -59.23155 38153 ft 405 kts 208°
2026-04-28 17:29 40.30410 -59.26121 38153 ft 406 kts 208°
2026-04-28 17:30 40.22690 -59.30548 38141 ft 405 kts 207°
2026-04-28 17:30 40.14931 -59.34985 38135 ft 406 kts 207°
2026-04-28 17:31 40.07168 -59.39415 38124 ft 405 kts 207°
2026-04-28 17:32 39.99461 -59.43800 38121 ft 404 kts 207°
2026-04-28 17:32 39.94306 -59.46728 38119 ft 404 kts 207°
2026-04-28 17:33 39.89163 -59.49644 38110 ft 403 kts 207°
2026-04-28 17:33 39.84892 -59.52061 38115 ft 402 kts 207°
2026-04-28 17:34 39.78881 -59.55462 38099 ft 403 kts 207°
2026-04-28 17:34 39.73772 -59.58344 38098 ft 403 kts 207°
2026-04-28 17:35 39.68631 -59.61242 38102 ft 402 kts 206°
2026-04-28 17:35 39.63497 -59.64129 38076 ft 402 kts 206°
2026-04-28 17:36 39.58364 -59.67010 38085 ft 402 kts 206°
2026-04-28 17:36 39.53248 -59.69877 38082 ft 403 kts 206°
2026-04-28 17:37 39.48093 -59.72763 38071 ft 404 kts 206°
2026-04-28 17:37 39.42923 -59.75652 38071 ft 405 kts 205°
2026-04-28 17:38 39.37739 -59.78544 38071 ft 406 kts 205°
2026-04-28 17:38 39.32541 -59.81440 38073 ft 408 kts 205°
2026-04-28 17:39 39.27357 -59.84323 38051 ft 409 kts 205°
2026-04-28 17:40 39.19513 -59.88675 38074 ft 409 kts 205°
2026-04-28 17:40 39.14285 -59.91572 38046 ft 409 kts 205°
2026-04-28 17:41 39.09072 -59.94453 38029 ft 406 kts 204°
2026-04-28 17:41 39.03924 -59.97294 38034 ft 404 kts 204°
2026-04-28 17:42 38.98767 -60.00136 38037 ft 403 kts 204°
2026-04-28 17:42 38.93617 -60.02972 38028 ft 402 kts 204°
2026-04-28 17:43 38.88477 -60.05796 38030 ft 402 kts 204°
2026-04-28 17:43 38.83335 -60.08616 38021 ft 402 kts 204°
2026-04-28 17:44 38.78228 -60.11413 38015 ft 402 kts 204°
2026-04-28 17:44 38.73090 -60.14223 38014 ft 401 kts 204°
2026-04-28 17:45 38.67960 -60.17024 38018 ft 401 kts 204°
2026-04-28 17:45 38.62813 -60.19832 38005 ft 403 kts 203°
2026-04-28 17:46 38.57648 -60.22644 37996 ft 404 kts 202°
2026-04-28 17:46 38.52505 -60.25446 37999 ft 405 kts 204°
2026-04-28 17:47 38.47550 -60.28918 37995 ft 408 kts 212°
2026-04-28 17:47 38.42893 -60.33073 37987 ft 409 kts 212°
2026-04-28 17:48 38.38219 -60.37221 37985 ft 410 kts 212°
2026-04-28 17:48 38.33570 -60.41330 37970 ft 410 kts 212°
2026-04-28 17:49 38.28885 -60.45463 37972 ft 409 kts 212°
2026-04-28 17:49 38.24196 -60.49593 37974 ft 411 kts 212°
2026-04-28 17:50 38.19488 -60.53731 37957 ft 412 kts 212°
2026-04-28 17:50 38.14770 -60.57873 37951 ft 413 kts 212°
2026-04-28 17:51 38.10074 -60.61988 37937 ft 413 kts 212°
2026-04-28 17:51 38.05356 -60.66117 37941 ft 411 kts 211°
2026-04-28 17:52 38.00661 -60.70219 37929 ft 409 kts 211°
2026-04-28 17:52 37.93657 -60.76326 37914 ft 409 kts 211°
2026-04-28 17:53 37.88937 -60.80429 37927 ft 418 kts 211°
2026-04-28 17:53 37.84137 -60.84598 37920 ft 419 kts 211°
2026-04-28 17:54 37.79332 -60.88768 37905 ft 419 kts 211°
2026-04-28 17:54 37.74529 -60.92928 37897 ft 418 kts 211°
2026-04-28 17:55 37.69736 -60.97073 37901 ft 417 kts 211°
2026-04-28 17:55 37.64986 -61.01173 37886 ft 416 kts 211°
2026-04-28 17:56 37.60212 -61.05287 37906 ft 416 kts 211°
2026-04-28 17:56 37.55387 -61.09437 37886 ft 425 kts 210°
2026-04-28 17:57 37.50458 -61.13668 37899 ft 431 kts 210°
2026-04-28 17:57 37.45502 -61.17921 37874 ft 431 kts 210°
2026-04-28 17:58 37.40618 -61.22108 37854 ft 426 kts 211°
2026-04-28 17:58 37.35706 -61.26307 37864 ft 428 kts 211°
2026-04-28 17:59 37.30770 -61.30519 37857 ft 430 kts 211°
2026-04-28 17:59 37.25808 -61.34748 37862 ft 432 kts 210°
2026-04-28 18:00 37.20797 -61.39008 37847 ft 438 kts 211°
2026-04-28 18:00 37.15760 -61.43286 37848 ft 441 kts 211°
2026-04-28 18:01 37.10678 -61.47598 37837 ft 440 kts 211°
2026-04-28 18:01 37.05638 -61.51868 37818 ft 435 kts 211°
2026-04-28 18:02 37.00642 -61.56091 37824 ft 433 kts 211°
2026-04-28 18:02 36.95630 -61.60319 37828 ft 437 kts 211°
2026-04-28 18:03 36.90549 -61.64596 37806 ft 442 kts 211°
2026-04-28 18:03 36.85482 -61.68859 37808 ft 443 kts 211°
2026-04-28 18:04 36.80373 -61.73151 37790 ft 443 kts 211°
2026-04-28 18:04 36.75261 -61.77438 37789 ft 442 kts 211°
2026-04-28 18:05 36.71015 -61.80992 37792 ft 442 kts 212°
2026-04-28 18:05 36.65083 -61.85950 37791 ft 441 kts 212°
2026-04-28 18:06 36.59989 -61.90200 37794 ft 441 kts 212°
2026-04-28 18:06 36.54886 -61.94450 37801 ft 443 kts 212°
2026-04-28 18:07 36.49752 -61.98718 37800 ft 446 kts 212°
2026-04-28 18:07 36.44617 -62.02981 37806 ft 448 kts 212°
2026-04-28 18:08 36.39412 -62.07296 37826 ft 451 kts 212°
2026-04-28 18:08 36.34176 -62.11628 37798 ft 453 kts 213°
2026-04-28 18:09 36.28921 -62.15970 37814 ft 454 kts 213°
2026-04-28 18:09 36.23668 -62.20303 37816 ft 454 kts 213°
2026-04-28 18:10 36.18439 -62.24610 37812 ft 456 kts 213°
2026-04-28 18:10 36.13152 -62.28956 37813 ft 457 kts 213°
2026-04-28 18:11 36.07853 -62.33305 37827 ft 457 kts 213°
2026-04-28 18:11 36.02553 -62.37648 37832 ft 458 kts 213°
2026-04-28 18:12 35.97279 -62.41963 37823 ft 458 kts 213°
2026-04-28 18:12 35.91971 -62.46298 37831 ft 457 kts 213°
2026-04-28 18:13 35.86664 -62.50626 37835 ft 457 kts 213°
2026-04-28 18:13 35.81355 -62.54948 37835 ft 458 kts 214°
2026-04-28 18:14 35.76031 -62.59275 37842 ft 459 kts 214°
2026-04-28 18:14 35.70731 -62.63576 37837 ft 460 kts 214°
2026-04-28 18:15 35.65390 -62.67903 37838 ft 460 kts 214°
2026-04-28 18:15 35.60033 -62.72235 37832 ft 460 kts 214°
2026-04-28 18:16 35.54680 -62.76558 37845 ft 461 kts 214°
2026-04-28 18:16 35.49326 -62.80874 37841 ft 461 kts 214°
2026-04-28 18:17 35.43998 -62.85164 37845 ft 462 kts 214°
2026-04-28 18:17 35.38623 -62.89483 37842 ft 463 kts 214°
2026-04-28 18:18 35.33229 -62.93811 37845 ft 464 kts 214°
2026-04-28 18:18 35.28736 -62.97410 37844 ft 465 kts 214°
2026-04-28 18:19 35.22406 -63.02474 37841 ft 465 kts 214°
2026-04-28 18:19 35.16986 -63.06803 37844 ft 466 kts 214°
2026-04-28 18:20 35.11593 -63.11104 37849 ft 466 kts 214°
2026-04-28 18:20 35.06225 -63.15516 37836 ft 465 kts 219°
2026-04-28 18:21 35.01343 -63.20674 37845 ft 464 kts 224°
2026-04-28 18:21 34.96523 -63.25926 37852 ft 465 kts 223°
2026-04-28 18:22 34.91683 -63.31161 37857 ft 465 kts 223°
2026-04-28 18:22 34.86863 -63.36342 37847 ft 466 kts 223°
2026-04-28 18:23 34.81999 -63.41553 37859 ft 465 kts 223°
2026-04-28 18:23 34.77136 -63.46756 37851 ft 466 kts 224°
2026-04-28 18:24 34.73090 -63.51078 37857 ft 466 kts 224°
2026-04-28 18:24 34.67384 -63.57164 37851 ft 467 kts 224°
2026-04-28 18:25 34.62533 -63.62331 37857 ft 467 kts 224°
2026-04-28 18:26 34.55195 -63.70129 37865 ft 468 kts 224°
2026-04-28 18:26 34.50297 -63.75323 37839 ft 468 kts 225°
2026-04-28 18:27 34.45393 -63.80517 37870 ft 469 kts 225°
2026-04-28 18:27 34.40470 -63.85721 37873 ft 470 kts 225°
2026-04-28 18:28 34.35539 -63.90924 37872 ft 471 kts 225°
2026-04-28 18:28 34.30634 -63.96093 37860 ft 471 kts 226°
2026-04-28 18:29 34.25696 -64.01286 37871 ft 470 kts 226°
2026-04-28 18:29 34.20760 -64.06470 37881 ft 470 kts 226°
2026-04-28 18:30 34.15820 -64.11651 37882 ft 470 kts 226°
2026-04-28 18:30 34.10879 -64.16823 37886 ft 470 kts 226°
2026-04-28 18:31 34.05967 -64.21957 37895 ft 470 kts 226°
2026-04-28 18:31 34.01022 -64.27117 37895 ft 470 kts 226°
2026-04-28 18:32 33.96080 -64.32266 37895 ft 470 kts 226°
2026-04-28 18:32 33.91139 -64.37404 37889 ft 469 kts 227°
2026-04-28 18:33 33.86205 -64.42529 37905 ft 468 kts 227°
2026-04-28 18:33 33.81303 -64.47613 37907 ft 469 kts 227°
2026-04-28 18:34 33.76358 -64.52735 37390 ft 476 kts 227°
2026-04-28 18:34 33.73823 -64.55365 36466 ft 481 kts 229°
2026-04-28 18:34 33.71292 -64.57978 35704 ft 479 kts 229°
2026-04-28 18:34 33.68760 -64.60588 34864 ft 479 kts 229°
2026-04-28 18:35 33.66232 -64.63193 33992 ft 480 kts 230°
2026-04-28 18:35 33.63690 -64.65813 32953 ft 482 kts 230°
2026-04-28 18:35 33.61149 -64.68430 32082 ft 480 kts 230°
2026-04-28 18:35 33.58629 -64.71017 31422 ft 473 kts 230°
2026-04-28 18:36 33.56179 -64.73528 30787 ft 467 kts 230°
2026-04-28 18:36 33.53728 -64.76038 30130 ft 461 kts 233°
2026-04-28 18:36 33.51301 -64.78526 29449 ft 456 kts 233°
2026-04-28 18:36 33.48906 -64.80984 28790 ft 451 kts 233°
2026-04-28 18:37 33.46536 -64.83414 28173 ft 445 kts 233°
2026-04-28 18:37 33.44199 -64.85809 27548 ft 440 kts 232°
2026-04-28 18:37 33.41888 -64.88176 26948 ft 434 kts 232°
2026-04-28 18:37 33.39606 -64.90512 26364 ft 429 kts 232°
2026-04-28 18:38 33.37376 -64.92793 25798 ft 424 kts 232°
2026-04-28 18:38 33.35146 -64.95072 25230 ft 419 kts 232°
2026-04-28 18:38 33.32942 -64.97324 24674 ft 415 kts 231°
2026-04-28 18:38 33.30761 -64.99550 24098 ft 411 kts 232°
2026-04-28 18:39 33.28594 -65.01762 23559 ft 408 kts 231°
2026-04-28 18:39 33.26446 -65.03952 22919 ft 405 kts 231°
2026-04-28 18:39 33.24316 -65.06121 22313 ft 401 kts 231°
2026-04-28 18:39 33.22204 -65.08272 21723 ft 396 kts 231°
2026-04-28 18:40 33.20118 -65.10393 21193 ft 391 kts 231°
2026-04-28 18:40 33.18059 -65.12487 20687 ft 387 kts 231°
2026-04-28 18:40 33.16050 -65.14530 20197 ft 382 kts 231°
2026-04-28 18:40 33.14039 -65.16571 19661 ft 377 kts 230°
2026-04-28 18:41 33.12045 -65.18565 19173 ft 370 kts 226°
2026-04-28 18:41 33.09737 -65.20029 18687 ft 388 kts 208°
2026-04-28 18:41 33.07019 -65.20563 18171 ft 407 kts 190°
2026-04-28 18:41 33.04152 -65.20082 17586 ft 426 kts 171°
2026-04-28 18:42 33.01438 -65.18577 17063 ft 440 kts 151°
2026-04-28 18:42 32.99191 -65.16091 16542 ft 439 kts 137°
2026-04-28 18:42 32.97141 -65.13404 16004 ft 438 kts 136°
2026-04-28 18:42 32.95099 -65.10707 15447 ft 438 kts 136°
2026-04-28 18:43 32.93084 -65.08060 14935 ft 437 kts 136°
2026-04-28 18:43 32.91037 -65.05401 14387 ft 436 kts 136°
2026-04-28 18:43 32.88978 -65.02754 13832 ft 435 kts 136°
2026-04-28 18:43 32.86916 -65.00121 13205 ft 434 kts 136°
2026-04-28 18:44 32.84858 -64.97505 12626 ft 432 kts 136°
2026-04-28 18:44 32.80773 -64.92329 11518 ft 426 kts 137°
2026-04-28 18:44 32.78752 -64.89772 11041 ft 422 kts 137°
2026-04-28 18:45 32.76759 -64.87253 10763 ft 412 kts 137°
2026-04-28 18:45 32.74850 -64.84838 10535 ft 402 kts 137°
2026-04-28 18:45 32.72962 -64.82452 10368 ft 391 kts 137°
2026-04-28 18:45 32.71124 -64.80132 10192 ft 381 kts 137°
2026-04-28 18:46 32.69333 -64.77873 10040 ft 371 kts 137°
2026-04-28 18:46 32.67574 -64.75658 9798 ft 365 kts 137°
2026-04-28 18:46 32.65847 -64.73485 9586 ft 356 kts 137°
2026-04-28 18:46 32.64181 -64.71387 9489 ft 342 kts 138°
2026-04-28 18:47 32.62585 -64.69377 9395 ft 328 kts 138°
2026-04-28 18:47 32.61066 -64.67467 9234 ft 317 kts 138°
2026-04-28 18:47 32.59592 -64.65613 8837 ft 302 kts 138°
2026-04-28 18:47 32.58161 -64.63820 8053 ft 298 kts 137°
2026-04-28 18:48 32.56743 -64.62044 7334 ft 296 kts 137°
2026-04-28 18:48 32.55329 -64.60275 6999 ft 293 kts 137°
2026-04-28 18:48 32.53942 -64.58536 6685 ft 288 kts 136°
2026-04-28 18:48 32.52574 -64.56821 6378 ft 284 kts 136°
2026-04-28 18:49 32.51227 -64.55132 6079 ft 280 kts 136°
2026-04-28 18:49 32.50792 -64.54587 5984 ft 280 kts 136°
2026-04-28 18:49 32.48586 -64.51822 5479 ft 276 kts 135°
2026-04-28 18:49 32.47310 -64.50130 5164 ft 274 kts 134°
2026-04-28 18:50 32.46079 -64.48469 5030 ft 263 kts 134°
2026-04-28 18:50 32.44897 -64.46879 4897 ft 251 kts 134°
2026-04-28 18:50 32.43775 -64.45376 4799 ft 235 kts 135°
2026-04-28 18:50 32.42531 -64.44229 4683 ft 228 kts 166°
2026-04-28 18:51 32.40968 -64.44048 4488 ft 227 kts 194°
2026-04-28 18:51 32.39438 -64.44377 4273 ft 222 kts 200°
2026-04-28 18:51 32.37913 -64.44781 4009 ft 226 kts 200°
2026-04-28 18:51 32.36402 -64.45179 3725 ft 223 kts 200°
2026-04-28 18:52 32.34917 -64.45597 3423 ft 213 kts 206°
2026-04-28 18:52 32.33800 -64.46603 3228 ft 200 kts 243°
2026-04-28 18:52 32.33454 -64.48145 3061 ft 194 kts 271°
2026-04-28 18:52 32.33507 -64.49735 2803 ft 193 kts 276°
2026-04-28 18:53 32.33621 -64.51304 2555 ft 190 kts 277°
2026-04-28 18:53 32.33825 -64.52839 2315 ft 189 kts 280°
2026-04-28 18:53 32.34080 -64.54354 2077 ft 183 kts 281°
2026-04-28 18:53 32.34322 -64.55752 1825 ft 163 kts 281°
2026-04-28 18:54 32.34531 -64.56963 1614 ft 137 kts 280°
2026-04-28 18:54 32.34705 -64.57981 1427 ft 117 kts 280°
2026-04-28 18:54 32.34860 -64.58890 1287 ft 114 kts 282°
2026-04-28 18:54 32.35020 -64.59818 1145 ft 117 kts 281°
2026-04-28 18:55 32.35190 -64.60763 1011 ft 117 kts 281°
2026-04-28 18:55 32.35307 -64.61380 924 ft 116 kts 280°
2026-04-28 18:55 32.35513 -64.62647 678 ft 119 kts 280°
2026-04-28 18:55 32.35656 -64.63611 549 ft 119 kts 281°
2026-04-28 18:56 32.35822 -64.64560 354 ft 117 kts 283°
2026-04-28 18:56 32.35989 -64.65481 207 ft 113 kts 282°
2026-04-28 18:56 32.36150 -64.66400 64 ft 117 kts 282°
2026-04-28 18:56 32.36303 -64.67292 28 ft 97 kts 282°
2026-04-28 18:57 32.36402 -64.67856 28 ft 44 kts 281°
2026-04-28 18:57 32.36446 -64.68118 26 ft 30 kts 281°
2026-04-28 18:57 32.36487 -64.68360 28 ft 30 kts 281°
2026-04-28 18:57 32.36525 -64.68589 27 ft 27 kts 281°
2026-04-28 18:58 32.36560 -64.68802 27 ft 26 kts 281°
2026-04-28 18:58 32.36588 -64.68968 28 ft 18 kts 282°
2026-04-28 18:58 32.36613 -64.69110 25 ft 18 kts 278°
2026-04-28 18:58 32.36588 -64.69250 27 ft 18 kts 248°
2026-04-28 18:59 32.36543 -64.69380 31 ft 18 kts 247°
2026-04-28 18:59 32.36496 -64.69517 32 ft 18 kts 248°
2026-04-28 18:59 32.36449 -64.69650 33 ft 17 kts 247°
2026-04-28 18:59 32.36402 -64.69782 31 ft 17 kts 248°
2026-04-28 19:00 32.36355 -64.69914 33 ft 17 kts 247°
2026-04-28 19:00 32.36308 -64.70046 33 ft 17 kts 246°
2026-04-28 19:00 32.36261 -64.70170 33 ft 13 kts 245°
2026-04-28 19:00 32.36233 -64.70247 33 ft 5 kts 249°
2026-04-28 19:01 32.36225 -64.70270 33 ft 2 kts 248°
2026-04-28 19:01 32.36221 -64.70284 34 ft 1 kts 248°
2026-04-28 19:01 32.36220 -64.70285 34 ft 0 kts 248°